Location: Holiday Acres Laynes 2 Mobile Home Park
(26.7249°N, 81.8671°W)
Time: 06:23:18
(UTC+00:00)

NOAA 6 - Pass Details

Date: 25 November 2020
Orbit: 772 x 787 km, 98.7° (Epoch: 21 January)

Event Time Altitude Azimuth Distance (km) Brightness Sun altitude
Rises 22:51:19 0° 172° (S) 3,259 7.4 -4.3°
Reaches altitude 10° 22:53:38 10° 174° (S) 2,332 6.7 -4.8°
Maximum altitude 22:58:45 70° 258° (WSW) 832 4.5 -5.9°
Drops below altitude 10° 23:03:53 10° 342° (NNW) 2,334 6.5 -7.0°
Sets 23:06:13 0° 345° (NNW) 3,262 7.2 -7.5°
